Location: Eckley
(40.9930°N, 75.8630°W)
Time: 19:47:16
(UTC-04:00)

Daily predictions for brighter satellites

Satellite Brightness Start Highest point End
(mag) Time Altitude Azimuth Time Altitude Azimuth Time Altitude Azimuth
Cosmos 2219 3.6 20:02:54 10° NNW 20:08:29 68° WSW 20:14:03 10° SSE
Cosmos 1602 4.5 20:05:31 10° SSW 20:09:24 62° W 20:13:21 10° N
CZ-4B DEB 2.9 20:07:32 10° SSE 20:10:44 56° ENE 20:13:58 10° N
DELTA 2 R/B (1) 3.6 20:07:50 10° W 20:13:26 79° S 20:18:59 10° E
Meteor 2-21 4.5 20:08:32 10° S 20:14:43 80° E 20:20:55 10° N
Okean 2 3.5 20:16:45 10° N 20:20:53 56° E 20:24:57 10° SSE
Cosmos 1975 4.2 20:18:33 10° SE 20:21:39 21° E 20:24:47 10° NE
Cosmos 968 Rocket 4.2 20:18:00 10° NNW 20:23:02 55° WSW 20:28:00 10° S
Meteor 2-4 Rocket 3.9 20:17:12 10° N 20:23:05 89° WSW 20:29:01 10° S
NOSS 2-1 (D) 3.6 20:20:11 10° SW 20:24:01 75° NW 20:28:24 10° NNE
Cosmos 1697 Rocket 4.1 20:20:42 10° SE 20:24:12 17° E 20:27:44 10° ENE
Helios 1A 4.0 20:20:19 10° S 20:24:20 49° W 20:28:25 10° NNW
NOSS 2-1 (C) 3.6 20:21:12 10° SW 20:25:03 75° NW 20:29:27 10° NNE
Cosmos 2123 Rocket 4.1 20:19:24 10° N 20:25:28 55° E 20:31:29 10° SSE
Cosmos 2278 3.9 20:20:35 10° S 20:26:02 50° ESE 20:31:31 10° NE
Meteor 2-15 4.4 20:22:43 10° N 20:28:48 71° E 20:34:49 10° SSE
Lacrosse 5 rocket 2.2 20:27:24 10° NNW 20:30:47 31° NE 20:33:40 12° E
H-2A R/B 3.9 20:29:26 10° E 20:31:29 14° ENE 20:33:31 10° NNE
Cosmos 1315 Rocket 4.3 20:28:18 10° SSW 20:32:06 42° WNW 20:36:00 10° N
ERS-1 Rocket 3.9 20:27:59 10° SE 20:32:20 30° ENE 20:36:42 10° N
ALOS 2.3 20:28:03 10° SSE 20:32:43 84° ENE 20:37:26 10° N
Meteor 2-14 Rocket 4.4 20:26:43 10° S 20:32:51 80° E 20:39:02 10° N
Cosmos 1892 Rocket 3.6 20:29:01 10° N 20:33:31 88° W 20:38:00 10° S
Meteor 2-15 Rocket 4.4 20:28:01 10° N 20:34:04 66° E 20:40:05 10° SSE
Cosmos 1626 Rocket 4.3 20:30:40 10° NNE 20:34:39 32° ENE 20:38:28 11° SE
Cosmos 1025 Rocket 4.0 20:30:34 10° NNW 20:34:48 51° W 20:38:59 10° SSW
Cosmos 1455 Rocket 2.9 20:34:31 10° S 20:38:49 73° E 20:43:09 10° NNE
H-2A R/B 2.7 20:35:09 10° SSE 20:39:00 82° ENE 20:42:56 10° N
Cosmos 2369 3.8 20:33:46 10° S 20:39:18 58° ESE 20:44:53 10° NNE
NOSS 2-1 (E) 4.2 20:37:14 10° SW 20:41:06 56° NW 20:45:34 10° NNE
Cosmos 1461 2.9 20:37:35 10° NNW 20:41:37 57° NE 20:44:43 15° SE
Cosmos 1602 Rocket 4.1 20:38:51 10° N 20:43:05 40° ENE 20:46:53 12° SE
Cosmos 1980 Rocket 3.6 20:45:16 15° ESE 20:46:20 16° E 20:49:35 10° ENE
Cosmos 1939 Rocket 3.7 20:51:41 18° SE 20:54:09 35° ENE 20:57:56 10° N
CZ-2D R/B 4.0 20:52:02 10° S 20:55:49 54° W 20:59:38 10° NNW
Resurs 01 Rocket 4.0 20:52:48 10° SSW 20:56:21 23° W 20:59:56 10° NW
Cosmos 1934 Rocket 4.3 20:50:41 10° SSW 20:56:45 71° W 21:02:59 10° N
Lacrosse 5 3.2 20:52:32 10° NNW 20:56:57 29° NNE 21:00:15 15° E
Hubble Space Telescope 3.2 21:00:57 10° SSW 21:01:31 10° SSW 21:02:04 10° S
Cosmos 2084 4.4 21:00:17 10° NNW 21:03:58 32° NE 21:05:45 23° E
SPOT 5 3.9 21:02:06 21° ESE 21:04:19 29° ENE 21:08:30 10° N
Cosmos 220 Rocket 4.0 21:03:23 10° NNW 21:07:35 61° ENE 21:09:49 26° SE
Cosmos 1346 Rocket 3.9 21:06:59 10° NNW 21:10:44 44° W 21:14:31 10° SSW
Cosmos 2227 Rocket 2.4 21:07:53 10° NNW 21:13:33 72° WSW 21:18:21 14° SSE
USA 186 3.4 21:10:58 10° SSW 21:13:48 31° W 21:16:30 10° NNW
Tiangong 1 1.4 21:12:19 10° W 21:15:23 59° N 21:16:25 35° ENE
OTV 4 1.4 21:13:54 10° W 21:16:36 32° SSW 21:16:45 31° S
Cosmos 1500 3.0 21:18:30 24° S 21:20:35 65° E 21:24:20 10° NNE
Cosmos 1656 3.6 21:15:01 10° SSW 21:20:37 71° ESE 21:26:11 10° NNE
NOSS 3-4 (A) 4.4 21:14:41 10° NW 21:21:34 56° WSW 21:28:01 13° SSE
RESURS DK-1 3.4 21:17:55 10° N 21:21:37 30° ENE 21:22:21 28° ENE
NOSS 3-4 (C) 4.4 21:14:48 10° NW 21:21:41 56° WSW 21:28:06 14° SSE
BREEZE-M TANK 3.3 21:11:39 10° WNW 21:23:08 80° NNE 21:24:54 33° E
Cosmos 2016 Rocket 4.4 21:23:05 28° SE 21:25:29 38° E 21:31:07 10° NNE
Cosmos 2298 Rocket 4.0 21:20:31 10° NNW 21:25:50 71° ENE 21:28:25 31° SSE
Cosmos 2082 4.1 21:21:26 10° NNW 21:26:57 59° WSW 21:31:16 17° S
CZ-4 DEB 3.4 21:26:40 27° SSW 21:28:04 51° W 21:31:09 10° NNW
Cosmos 2297 Rocket 2.3 21:23:34 10° NNW 21:29:14 75° WSW 21:32:48 23° SSE
Cosmos 1340 3.6 21:31:52 10° N 21:34:56 34° ENE 21:34:56 34° ENE
Envisat 2.9 21:34:13 27° SSE 21:37:03 87° WSW 21:42:10 10° NNW
Cosmos 2173 Rocket 4.0 21:32:57 16° S 21:38:11 69° E 21:44:30 10° NNE
H-2A R/B 3.7 21:39:13 18° ENE 21:39:15 18° ENE 21:42:27 10° NNE
Milstar 3 Cent rocket 4.4 21:20:36 10° WSW 21:40:19 48° SSW 21:45:56 29° SE
Cosmos 1726 Rocket 4.3 21:42:20 35° ENE 21:42:20 35° ENE 21:45:38 10° NNE
Cosmos 1937 Rocket 3.5 21:36:56 10° NNW 21:42:11 65° ENE 21:43:40 45° SE
Cosmos 1515 4.4 21:39:37 10° NNW 21:43:23 52° W 21:44:57 30° SSW
Terra 3.8 21:44:43 15° ENE 21:44:43 15° ENE 21:47:02 10° NNE
ASTEX 1 3.5 21:40:50 10° NNE 21:45:45 53° E 21:46:26 49° ESE
Cosmos 2098 Rocket 4.4 21:45:59 37° SE 21:47:54 45° E 21:53:43 10° NNE
OAO 2 Rocket 3.8 21:43:43 10° WSW 21:48:29 42° S 21:48:32 42° S
Cosmos 2100 Rocket 3.9 21:42:26 11° S 21:48:33 89° E 21:54:49 10° N
YAOGAN 6 3.0 21:49:35 50° NE 21:49:35 50° NE 21:52:42 10° N
Cosmos 2061 Rocket 3.9 21:44:13 16° S 21:49:22 83° E 21:55:39 10° N
Cosmos 2150 Rocket 4.0 21:47:32 10° NNW 21:52:41 76° WSW 21:54:22 43° S
Cosmos 1743 2.6 21:53:16 88° SSE 21:53:18 89° ESE 21:57:15 10° N
Tsikada Rocket 4.5 21:48:32 10° N 21:54:36 42° ENE 21:55:35 40° E
Cosmos 1825 Rocket 3.4 21:50:33 10° N 21:54:59 81° E 21:55:21 73° SE
MetOp-A 4.0 21:55:02 49° SSE 21:56:31 81° ENE 22:01:53 10° NNW
Cosmos 972 Rocket 4.4 21:50:48 10° NNW 21:56:44 88° WSW 21:59:20 39° SSE
SPOT 1/Viking Rocket 3.7 21:57:13 51° E 21:57:47 54° ENE 22:02:53 10° N
Cosmos 990 Rocket 3.9 21:52:48 10° NNW 21:58:03 66° ENE 21:58:46 59° ESE
DELTA 2 R/B (1) 3.7 21:54:17 10° W 21:59:44 57° SSW 22:00:24 53° SSE
USA 245 4.4 22:00:23 50° SE 22:01:57 68° ENE 22:08:17 10° N
Cosmos 1953 Rocket 3.5 21:59:29 10° N 22:03:44 72° NE 22:03:44 72° NE
CZ-4B R/B 4.2 21:59:55 10° NNE 22:03:04 35° NE 22:03:04 35° NE
H-2A R/B 2.5 22:06:31 48° SW 22:07:02 51° W 22:11:05 10° NNW
Cosmos 1697 Rocket 3.0 22:01:57 10° SSW 22:07:33 65° WNW 22:13:12 10° NNE
Lacrosse 5 rocket 2.7 22:06:45 10° WNW 22:09:24 26° WSW 22:09:24 26° WSW
SL-16 R/B 4.0 22:15:31 17° NE 22:15:31 17° NE 22:17:07 10° NE
Cosmos 1842 4.4 22:11:03 10° N 22:13:33 36° NNE 22:13:33 36° NNE
NOAA 11 4.0 22:15:11 69° ESE 22:15:38 74° ENE 22:21:06 10° N
Cosmos 1898 Rocket 4.4 22:12:34 10° NNW 22:17:33 43° WSW 22:19:08 33° SW
Cosmos 1758 Rocket 3.9 22:18:40 10° N 22:22:20 61° NNW 22:22:20 61° NNW
Cosmos 1725 Rocket 3.8 22:22:45 67° SE 22:23:28 75° E 22:29:42 10° N
Cosmos 1125 Rocket 4.1 22:18:51 10° N 22:23:14 43° NE 22:23:14 43° NE
Cosmos 1763 Rocket 3.3 22:24:17 83° W 22:24:22 83° WNW 22:29:28 10° NNE
Cosmos 1980 Rocket 2.4 22:26:52 31° SW 22:29:38 71° WNW 22:35:21 10° NNE
Meteor 1-15 Rocket 4.2 22:30:17 76° E 22:30:17 76° E 22:36:07 10° NNE
ARGOS 3.0 22:30:52 83° SW 22:30:58 83° WSW 22:36:23 10° NNW
Lacrosse 5 2.4 22:35:14 10° NW 22:39:26 53° W 22:39:26 53° W
SPOT 5 4.3 22:41:21 30° WSW 22:42:16 32° W 22:46:41 10° NNW
Cosmos 2058 Rocket 4.1 22:44:37 46° NW 22:44:37 46° NW 22:48:07 10° N
Cosmos 841 Rocket 3.8 22:45:03 62° WNW 22:45:04 62° WNW 22:50:17 10° NNE
USA 215 3.2 22:44:53 66° E 22:45:38 72° NE 22:52:09 10° NW
BREEZE-M DEB (TANK) 4.0 22:36:49 10° SW 22:49:08 79° S 22:49:08 79° S
Cosmos 2233 Rocket 4.0 22:51:57 67° NE 22:51:57 67° NE 22:57:25 10° N
Cosmos 2263 Rocket 3.1 22:54:08 10° NNW 22:58:15 38° NNE 22:58:15 38° NNE
Cosmos 2322 Rocket 3.2 23:03:22 37° NNE 23:03:22 37° NNE 23:06:40 10° NNE
H-2A R/B 3.2 23:19:52 38° NW 23:19:52 38° NW 23:23:06 10° NNW
BREEZE-M DEB (TANK) 3.7 23:04:53 10° WNW 23:18:46 77° NNW 23:18:46 77° NNW
Terra 3.4 23:23:37 33° NNW 23:23:37 33° NNW 23:26:18 10° NNW
